Location: Waco, TX
(31.5480°N, 97.1670°W)
Time: 15:35:16
(UTC-06:00)

ISS - Pass Details

Date: 28 January 2021
Orbit: 417 x 422 km, 51.6° (Epoch: 07 March)

Event Time Altitude Azimuth Distance (km) Brightness Sun altitude
Rises 14:40:39 0° 228° (SW) 2,349 1.1 32.9°
Reaches altitude 10° 14:42:45 10° 230° (SW) 1,490 0.4 32.6°
Maximum altitude 14:46:05 73° 315° (NW) 441 -3.2 32.2°
Drops below altitude 10° 14:49:27 10° 41° (NE) 1,501 -1.4 31.8°
Sets 14:51:33 0° 43° (NE) 2,368 -0.5 31.5°
